[[{"header":{"parameterUnit":"m.s-1","parameterCategory":2,"la1":30.2991,"la2":30.254,"lo1":-89.0895,"lo2":-89.0444,"dy":0.0017,"dx":0.0017,"nx":28,"ny":28,"refTime":"2024-06-29T03:00:00:Z","depth":"0","parameterNumber":2,"parameterNumberName":"U-component_of_CURRENTS"},"data":[0,0,0,0,0,0,0,0,0,0,0,0,0,0,0,0,0,0,0,0,0,0,0,0,0,0,0,0,0,0,0,0,0,0,0,0,0,0,0,0,0,0,0,0,0,0,0,0,0,0,0,0,0,0,0,0,0,0,0.1829,0.183,0,0.1866,0.1866,0.1866,0.1934,0.1935,0.1936,0.1938,0.2001,0.2001,0.2002,0,0,0,0,0,0,0,0,0,0,0,0,0,0.1901,0.1899,0.1829,0.183,0.183,0.1865,0.1866,0.1866,0.1934,0.1935,0.1937,0.1938,0.2001,0.2001,0.2002,0,0,0,0,0,0,0,0,0,0,0,0,0,0.1896,0.1898,0.1829,0.1868,0.1872,0.1865,0.1866,0.1867,0.1933,0.1935,0.1937,0.1939,0.2001,0.2001,0.2002,0.1966,0,0,0.2004,0.2004,0,0,0,0,0,0,0,0,0.1896,0.1893,0.1862,0.1866,0.187,0.1898,0.1915,0.1901,0.1933,0.191,0.1938,0.194,0.1968,0.1971,0.1973,0.1969,0.1972,0.2004,0.2004,0.2005,0.2005,0,0,0,0,0,0,0,0.1896,0.1893,0.1843,0.1862,0.1867,0.1913,0.1913,0.1913,0.1927,0.1912,0.1917,0.1921,0.197,0.1972,0.1975,0.1972,0.2004,0.2005,0.2005,0.2005,0.2031,0.2031,0,0,0,0,0,0,0.1885,0.1892,0.1842,0.1844,0.1889,0.1909,0.191,0.1886,0.1927,0.1935,0.1919,0.1924,0.197,0.1974,0.1977,0.2017,0.2005,0.2005,0.2006,0.2031,0.2031,0.2031,0,0,0,0,0,0,0.1886,0.1879,0.1841,0.1872,0.187,0.1905,0.1879,0.1886,0.1898,0.1932,0.1941,0.1925,0.1971,0.1976,0.1991,0.2017,0.2006,0.2006,0.203,0.2031,0.2031,0.2045,0,0,0,0,0,0,0.1888,0.1879,0.1859,0.1869,0.1868,0.1845,0.1877,0.1885,0.1897,0.1904,0.1939,0.1947,0.1973,0.199,0.1992,0.2018,0.2007,0.203,0.203,0.2031,0.2044,0.2046,0.2048,0,0,0,0,0,0.189,0.1851,0.1857,0.1851,0.1837,0.1844,0.1848,0.1881,0.1895,0.1899,0.1926,0.1947,0.1996,0.199,0.1992,0.2019,0.203,0.203,0.2031,0.2044,0.2046,0.2047,0,0,0,0,0,0,0.1871,0.1855,0.1861,0.1819,0.1836,0.1856,0.1856,0.1874,0.1895,0.1903,0.1937,0.1946,0.1977,0.1982,0.1975,0.2028,0.2021,0.2022,0.203,0.2032,0.2033,0.2033,0.2007,0,0,0,0,0,0.1854,0.1824,0.183,0.1801,0.1803,0.1827,0.1833,0.1855,0.1875,0.1886,0.1914,0.1943,0.1976,0.199,0.2014,0.2023,0.205,0.2045,0.2047,0.2048,0.2049,0.2099,0.2106,0.2033,0.2033,0.2033,0,0,0.1841,0.1828,0.1811,0.1796,0.1808,0.1818,0.1836,0.1842,0.1865,0.1887,0.1919,0.1945,0.1979,0.2012,0.2026,0.2021,0.2086,0.2049,0.205,0.205,0.2101,0.2108,0.2115,0.2034,0.2034,0.2034,0,0,0.181,0.1785,0.176,0.1771,0.1784,0.1803,0.1804,0.1825,0.1851,0.1871,0.1911,0.1946,0.1975,0.2021,0.2044,0.2057,0.2094,0.2068,0.2076,0.2125,0.2131,0.2138,0.2196,0.2207,0.2067,0.2067,0.2067,0,0.1797,0.1766,0.1759,0.1754,0.1771,0.1796,0.1804,0.1825,0.1856,0.188,0.1885,0.1961,0.1986,0.2049,0.2063,0.2065,0.2098,0.2068,0.2128,0.2135,0.2141,0.2199,0.2211,0.2068,0.2068,0.2068,0.2068,0,0.1764,0.1749,0.1739,0.1743,0.1759,0.1766,0.1802,0.1823,0.1852,0.1884,0.1941,0.1977,0.2028,0.2046,0.2059,0.2122,0.2135,0.2127,0.2126,0.2149,0.2209,0.2222,0.2069,0.2069,0.2069,0.2069,0,0,0.1722,0.1714,0.1718,0.173,0.1758,0.1771,0.1806,0.1851,0.1888,0.192,0.1974,0.2029,0.2051,0.2078,0.2108,0.2146,0.2223,0.2152,0.2154,0.2214,0.2345,0.2326,0.2338,0.2227,0.2229,0.2231,0.2375,0,0.1711,0.1698,0.1706,0.1729,0.1735,0.1777,0.1814,0.1861,0.1905,0.1959,0.2008,0.2066,0.2065,0.2099,0.2137,0.2201,0.2254,0.2185,0.2309,0.2313,0.2296,0.235,0.2234,0.235,0.2388,0.239,0.2391,0,0.1694,0.1691,0.1695,0.1735,0.1744,0.1766,0.1843,0.188,0.1956,0.1992,0.2048,0.2089,0.2163,0.2152,0.2273,0.2229,0.229,0.2332,0.2339,0.2322,0.2316,0.2329,0.2371,0.2198,0.2411,0.2409,0.2408,0,0.1692,0.1698,0.1704,0.1715,0.1754,0.1778,0.1816,0.1889,0.1933,0.2019,0.2058,0.214,0.2195,0.2267,0.235,0.2321,0.2482,0.2456,0.2502,0.2502,0.2428,0.2417,0.2317,0.2552,0.2551,0.2551,0.255,0,0.1688,0.17,0.17,0.1707,0.174,0.1774,0.1831,0.1879,0.1953,0.2009,0.2074,0.2133,0.2225,0.232,0.2381,0.2486,0.2515,0.2522,0.2541,0.243,0.2418,0.2282,0.2223,0.2556,0.2555,0.2554,0.2553,0,0.1695,0.1688,0.1698,0.1722,0.1735,0.1764,0.183,0.1875,0.194,0.2017,0.2046,0.2152,0.2265,0.2365,0.2503,0.2534,0.2548,0.2667,0.2534,0.2535,0.2378,0.2326,0.2275,0.2268,0.2731,0.2732,0.2732,0,0.1706,0.1703,0.1706,0.1715,0.1726,0.1768,0.1805,0.1868,0.1919,0.2025,0.2066,0.2187,0.2282,0.2476,0.2563,0.2691,0.257,0.2638,0.2551,0.2363,0.2321,0.2235,0.2229,0.2472,0.247,0.2469,0.2468,0,0.1738,0.1723,0.1725,0.1729,0.1752,0.1778,0.1832,0.1861,0.1942,0.1999,0.2099,0.2178,0.2358,0.2421,0.2569,0.2627,0.246,0.2611,0.2445,0.2137,0.201,0.2014,0.2391,0.2454,0.2456,0.2457,0.2457,0.2458,0.1771,0.1768,0.1755,0.1762,0.1772,0.1787,0.1802,0.1856,0.1911,0.1971,0.2069,0.2137,0.2198,0.2388,0.244,0.2349,0.2424,0.2238,0.2208,0.2151,0.2072,0.2427,0.2485,0.2487,0.2488,0.2489,0.249,0,0.1825,0.1806,0.1803,0.179,0.1781,0.1788,0.1822,0.182,0.1858,0.1914,0.1981,0.1971,0.1987,0.2017,0.1988,0.1916,0.1906,0.183,0.1639,0.1676,0.2,0.1908,0.1806,0.1806,0.1806,0.1806,0.1806,0.1807,0.186,0.1853,0.1829,0.1804,0.1786,0.1757,0.1759,0.1746,0.1768,0.1736,0.1714,0.1733,0.1674,0.1524,0.1394,0.1408,0.1304,0.1263,0.1322,0.1444,0.1477,0.1508,0.1401,0.1195,0.1194,0.0933,0.093,0.0928]},{"header":{"parameterUnit":"m.s-1","parameterCategory":2,"la1":30.2991,"la2":30.254,"lo1":-89.0895,"lo2":-89.0444,"dy":0.0017,"dx":0.0017,"nx":28,"ny":28,"refTime":"2024-06-29T03:00:00:Z","depth":"0","parameterNumber":3,"parameterNumberName":"V-component_of_CURRENTS"},"data":[0,0,0,0,0,0,0,0,0,0,0,0,0,0,0,0,0,0,0,0,0,0,0,0,0,0,0,0,0,0,0,0,0,0,0,0,0,0,0,0,0,0,0,0,0,0,0,0,0,0,0,0,0,0,0,0,0,0,-0.0337,-0.0337,0,-0.032,-0.032,-0.032,-0.0338,-0.0339,-0.0339,-0.034,-0.0411,-0.0412,-0.0413,0,0,0,0,0,0,0,0,0,0,0,0,0,-0.0419,-0.0417,-0.0337,-0.0337,-0.0336,-0.032,-0.032,-0.032,-0.0338,-0.0339,-0.0339,-0.034,-0.041,-0.0412,-0.0413,0,0,0,0,0,0,0,0,0,0,0,0,0,-0.0391,-0.0417,-0.0337,-0.0343,-0.0343,-0.032,-0.032,-0.032,-0.0338,-0.0339,-0.034,-0.0341,-0.041,-0.0412,-0.0414,-0.0405,0,0,-0.0419,-0.042,0,0,0,0,0,0,0,0,-0.0393,-0.0388,-0.0342,-0.0343,-0.0343,-0.0332,-0.0375,-0.0353,-0.0337,-0.034,-0.034,-0.0341,-0.0391,-0.0395,-0.0389,-0.0409,-0.0412,-0.042,-0.0421,-0.0421,-0.0422,0,0,0,0,0,0,0,-0.0395,-0.0389,-0.0331,-0.0342,-0.0342,-0.0359,-0.0356,-0.0371,-0.0362,-0.034,-0.0341,-0.0338,-0.0392,-0.0387,-0.0391,-0.0413,-0.0419,-0.0421,-0.0422,-0.0423,-0.0462,-0.0462,0,0,0,0,0,0,-0.0393,-0.0391,-0.0331,-0.033,-0.037,-0.0356,-0.0353,-0.0335,-0.036,-0.0364,-0.0338,-0.0339,-0.0383,-0.0389,-0.0394,-0.0407,-0.0421,-0.0423,-0.0424,-0.0462,-0.0462,-0.0462,0,0,0,0,0,0,-0.0394,-0.0387,-0.0332,-0.0361,-0.0355,-0.0353,-0.0333,-0.0334,-0.0332,-0.0357,-0.0364,-0.0336,-0.0384,-0.0391,-0.0404,-0.0409,-0.0424,-0.0426,-0.0463,-0.0462,-0.0462,-0.042,0,0,0,0,0,0,-0.0396,-0.0387,-0.0373,-0.036,-0.0353,-0.0314,-0.0332,-0.0333,-0.0328,-0.0331,-0.0358,-0.0365,-0.0385,-0.0401,-0.0406,-0.0412,-0.0427,-0.0463,-0.0462,-0.0462,-0.0421,-0.0418,-0.0416,0,0,0,0,0,-0.0399,-0.0377,-0.0372,-0.0365,-0.0333,-0.0313,-0.0311,-0.0315,-0.0327,-0.0318,-0.0339,-0.0364,-0.0404,-0.0402,-0.0408,-0.0415,-0.0463,-0.0462,-0.0462,-0.0423,-0.0419,-0.0416,0,0,0,0,0,0,-0.041,-0.0376,-0.0371,-0.034,-0.0325,-0.0316,-0.031,-0.0312,-0.0318,-0.0326,-0.0355,-0.0363,-0.0379,-0.0399,-0.0396,-0.0426,-0.0441,-0.0442,-0.0409,-0.0406,-0.0403,-0.0387,-0.0429,0,0,0,0,0,-0.0402,-0.0374,-0.0352,-0.0328,-0.0321,-0.0315,-0.0308,-0.0307,-0.0311,-0.0314,-0.0332,-0.0358,-0.038,-0.0394,-0.0412,-0.0423,-0.0425,-0.0435,-0.0432,-0.0429,-0.042,-0.0427,-0.0424,-0.0461,-0.0461,-0.0461,0,0,-0.0399,-0.0378,-0.0362,-0.0328,-0.032,-0.03,-0.0313,-0.0299,-0.0291,-0.0322,-0.0323,-0.0346,-0.0379,-0.0392,-0.0402,-0.0412,-0.0416,-0.0429,-0.0426,-0.0419,-0.0427,-0.0423,-0.042,-0.0461,-0.0461,-0.0461,0,0,-0.0381,-0.0362,-0.0333,-0.0315,-0.0295,-0.0291,-0.0286,-0.0273,-0.0279,-0.0274,-0.0303,-0.0321,-0.0347,-0.0371,-0.0388,-0.038,-0.0398,-0.0396,-0.0371,-0.0378,-0.0375,-0.0372,-0.0351,-0.0347,-0.0398,-0.0397,-0.0397,0,-0.0381,-0.0336,-0.0324,-0.0295,-0.0281,-0.0285,-0.0259,-0.0261,-0.0257,-0.0261,-0.0272,-0.0306,-0.0336,-0.0358,-0.0358,-0.0373,-0.037,-0.0381,-0.0373,-0.037,-0.0368,-0.0348,-0.0344,-0.0395,-0.0396,-0.0396,-0.0396,0,-0.0341,-0.0305,-0.0291,-0.0253,-0.0239,-0.0217,-0.0215,-0.0213,-0.0223,-0.0224,-0.024,-0.027,-0.0291,-0.031,-0.0332,-0.0339,-0.0338,-0.0364,-0.0378,-0.0362,-0.0342,-0.0338,-0.0392,-0.0393,-0.0394,-0.0394,0,0,-0.0343,-0.0273,-0.0269,-0.024,-0.0214,-0.0198,-0.0192,-0.0183,-0.0177,-0.0189,-0.0181,-0.0225,-0.024,-0.0261,-0.0295,-0.0304,-0.0285,-0.0325,-0.0326,-0.0297,-0.0275,-0.0227,-0.0219,-0.0311,-0.0311,-0.031,-0.026,0,-0.0316,-0.0248,-0.0227,-0.0178,-0.0146,-0.0146,-0.0139,-0.0137,-0.0141,-0.0135,-0.0174,-0.0181,-0.0224,-0.0233,-0.0249,-0.0278,-0.0276,-0.0294,-0.0303,-0.0302,-0.0256,-0.0214,-0.0129,-0.0073,-0.0257,-0.0256,-0.0256,0,-0.0289,-0.0243,-0.0182,-0.0131,-0.0121,-0.0099,-0.0086,-0.0076,-0.008,-0.0085,-0.0099,-0.0122,-0.0143,-0.0179,-0.0208,-0.0217,-0.0238,-0.0257,-0.0257,-0.0224,-0.0248,-0.0125,-0.006,-0.0065,-0.025,-0.0251,-0.0251,0,-0.0294,-0.0219,-0.0169,-0.0148,-0.0095,-0.0081,-0.0065,-0.0061,-0.0048,-0.0048,-0.0032,-0.0067,-0.0069,-0.0111,-0.0151,-0.018,-0.0163,-0.0213,-0.0184,-0.018,-0.0114,-0.0105,-0.0049,-0.0221,-0.0221,-0.0221,-0.0221,0,-0.0273,-0.0234,-0.0163,-0.0133,-0.0089,-0.0063,-0.0029,-0.0023,-0.0,0.0031,-0.0004,0.0022,-0.0052,-0.0055,-0.0111,-0.0114,-0.0132,-0.0157,-0.0161,-0.0095,-0.0086,-0.0095,-0.0125,-0.0219,-0.022,-0.022,-0.022,0,-0.0277,-0.0231,-0.017,-0.0104,-0.0084,-0.0054,0.0003,0.003,0.0045,0.0092,0.0096,0.0099,0.0105,0.0051,0.0007,-0.0042,-0.0043,-0.0069,0.0032,0.0038,0.0046,0.0015,0.0072,0.0101,-0.003,-0.0028,-0.0027,0,-0.0265,-0.0231,-0.0151,-0.0115,-0.008,-0.0028,0.0007,0.0041,0.0082,0.0146,0.0178,0.0205,0.0247,0.0222,0.0147,0.0097,0.0055,0.0129,0.0077,0.0086,0.0046,0.0022,0.004,0.0188,0.0191,0.0193,0.0195,0,-0.0239,-0.0216,-0.0162,-0.0092,-0.0041,0.0021,0.0084,0.0124,0.0178,0.0236,0.0333,0.0381,0.0379,0.0389,0.032,0.0273,0.017,0.0176,0.0156,0.021,0.0218,0.0232,0.0124,0.0217,0.0214,0.0213,0.0212,0.0211,-0.022,-0.0181,-0.0113,-0.0051,0.0005,0.0086,0.0138,0.0216,0.0308,0.0413,0.0459,0.0565,0.0569,0.0501,0.0439,0.0384,0.0318,0.0356,0.0317,0.0291,0.0327,0.0284,0.038,0.0379,0.0378,0.0377,0.0376,0,-0.0177,-0.0131,-0.0072,0.0017,0.0081,0.0105,0.0202,0.0259,0.038,0.0499,0.0605,0.0732,0.0738,0.0674,0.0581,0.0525,0.0496,0.0499,0.048,0.0488,0.0439,0.0455,0.061,0.061,0.061,0.061,0.0609,0.0609,-0.0145,-0.0076,-0.0044,0.0076,0.0131,0.022,0.0277,0.0358,0.0451,0.0618,0.0736,0.0819,0.0835,0.0696,0.062,0.0601,0.0562,0.0577,0.0518,0.0468,0.0451,0.0434,0.0444,0.0593,0.0593,0.0624,0.0624,0.0624]}],[{"header":{"parameterUnit":"m.s-1","parameterCategory":2,"la1":30.2991,"la2":30.254,"lo1":-89.0895,"lo2":-89.0444,"dy":0.0017,"dx":0.0017,"nx":28,"ny":28,"refTime":"2024-06-29T03:00:00:Z","depth":"2","parameterNumber":2,"parameterNumberName":"U-component_of_CURRENTS"},"data":[0,0,0,0,0,0,0,0,0,0,0,0,0,0,0,0,0,0,0,0,0,0,0,0,0,0,0,0,0,0,0,0,0,0,0,0,0,0,0,0,0,0,0,0,0,0,0,0,0,0,0,0,0,0,0,0,0,0,0.0772,0.0773,0,0.0866,0.0868,0.0869,0.0907,0.0907,0.0906,0.0906,0.1037,0.1041,0.1045,0,0,0,0,0,0,0,0,0,0,0,0,0,0.0772,0.0771,0.0772,0.0773,0.0774,0.0866,0.0868,0.0869,0.0908,0.0907,0.0906,0.0906,0.1036,0.1041,0.1046,0,0,0,0,0,0,0,0,0,0,0,0,0,0.0813,0.0771,0.0772,0.0801,0.0804,0.0866,0.0868,0.087,0.0908,0.0907,0.0906,0.0905,0.1034,0.104,0.1046,0.1101,0,0,0.1065,0.1067,0,0,0,0,0,0,0,0,0.081,0.0813,0.0796,0.0799,0.0803,0.0871,0.0916,0.0948,0.0908,0.0873,0.0906,0.0905,0.0983,0.0993,0.1018,0.1107,0.1113,0.1065,0.1069,0.1072,0.1073,0,0,0,0,0,0,0,0.0807,0.081,0.0814,0.0797,0.0801,0.0859,0.0863,0.0923,0.0935,0.0876,0.0878,0.0882,0.0986,0.1012,0.1022,0.1115,0.1065,0.107,0.1074,0.1077,0.1311,0.1313,0,0,0,0,0,0,0.078,0.0807,0.0811,0.0816,0.08,0.0859,0.0864,0.0853,0.0934,0.0944,0.0883,0.0883,0.1002,0.1014,0.1026,0.1125,0.1072,0.1077,0.1081,0.1308,0.1311,0.1314,0,0,0,0,0,0,0.078,0.0779,0.0807,0.0812,0.0818,0.0858,0.0847,0.0855,0.0879,0.0938,0.095,0.0897,0.1002,0.1018,0.1103,0.1129,0.108,0.1085,0.1305,0.1309,0.1313,0.1304,0,0,0,0,0,0,0.0779,0.0778,0.0768,0.0809,0.0817,0.0845,0.0848,0.0858,0.0881,0.0884,0.0955,0.0966,0.1003,0.1094,0.1109,0.1136,0.109,0.1302,0.1307,0.1312,0.1301,0.1307,0.1312,0,0,0,0,0,0.0779,0.0763,0.0767,0.0768,0.0799,0.0845,0.0856,0.0885,0.0883,0.0902,0.0963,0.0964,0.1135,0.1101,0.1118,0.1148,0.13,0.1306,0.1311,0.1298,0.1306,0.1312,0,0,0,0,0,0,0.076,0.0767,0.0771,0.0758,0.0799,0.085,0.0863,0.0885,0.0947,0.0949,0.1001,0.1019,0.1107,0.1136,0.1097,0.1234,0.1216,0.1226,0.1201,0.1208,0.1214,0.1218,0.1095,0,0,0,0,0,0.0749,0.0737,0.0769,0.0763,0.0776,0.0821,0.0842,0.0866,0.0921,0.0945,0.1002,0.107,0.1147,0.118,0.1254,0.1324,0.1344,0.1356,0.1362,0.1366,0.1384,0.1433,0.1444,0.1333,0.1333,0.1333,0,0,0.0742,0.0742,0.0737,0.0759,0.0787,0.0828,0.0833,0.0865,0.0915,0.0952,0.1039,0.1097,0.1175,0.1263,0.1303,0.1285,0.1409,0.1373,0.1376,0.1393,0.144,0.1451,0.146,0.1337,0.1336,0.1336,0,0,0.0727,0.072,0.0712,0.0748,0.0785,0.0826,0.0833,0.0893,0.0931,0.1015,0.1067,0.1146,0.1246,0.1319,0.1364,0.1448,0.1444,0.146,0.1481,0.1528,0.1536,0.1544,0.1571,0.1582,0.1452,0.1452,0.1452,0,0.0721,0.0716,0.0725,0.0743,0.0781,0.0824,0.0861,0.0914,0.1003,0.1046,0.1041,0.122,0.128,0.1401,0.1436,0.146,0.1472,0.1439,0.1531,0.1539,0.1547,0.1574,0.1585,0.1452,0.1452,0.1452,0.1452,0,0.0716,0.0724,0.0728,0.0767,0.0812,0.0851,0.0923,0.0979,0.1023,0.1079,0.1196,0.1284,0.1381,0.1416,0.1454,0.1554,0.154,0.1533,0.15,0.1557,0.1582,0.1594,0.1453,0.1452,0.1452,0.1452,0,0,0.0682,0.0715,0.0721,0.0752,0.0832,0.0872,0.0957,0.1051,0.1102,0.1188,0.1261,0.1406,0.143,0.1488,0.154,0.1591,0.166,0.1583,0.1585,0.1586,0.1744,0.1607,0.1607,0.1651,0.1653,0.1655,0.1731,0,0.0688,0.071,0.0743,0.0814,0.0847,0.0925,0.1003,0.1094,0.1164,0.1246,0.1337,0.1429,0.1462,0.15,0.1562,0.1646,0.1694,0.1639,0.1711,0.1714,0.1565,0.1618,0.141,0.1449,0.1743,0.1745,0.1747,0,0.0689,0.0705,0.0749,0.0839,0.0862,0.0917,0.1043,0.1116,0.1236,0.1284,0.1374,0.1435,0.156,0.1552,0.1708,0.1663,0.1712,0.176,0.1763,0.1651,0.16,0.1447,0.146,0.1767,0.1765,0.1764,0.1762,0,0.0668,0.0728,0.076,0.0792,0.089,0.0937,0.1004,0.1122,0.119,0.1301,0.1345,0.1476,0.1544,0.1632,0.174,0.1721,0.188,0.1857,0.1785,0.1775,0.1624,0.1595,0.196,0.1959,0.1959,0.1959,0.1959,0,0.0676,0.0713,0.0745,0.0768,0.0835,0.0909,0.0995,0.1075,0.1176,0.1262,0.1352,0.1433,0.1566,0.1669,0.1746,0.1799,0.1882,0.1805,0.1792,0.1613,0.1584,0.1883,0.1873,0.1962,0.1961,0.1961,0.196,0,0.0676,0.0686,0.073,0.0797,0.0823,0.0872,0.0982,0.1044,0.1131,0.1238,0.1273,0.1418,0.1543,0.1661,0.1813,0.1791,0.1866,0.1865,0.1634,0.1591,0.1727,0.1716,0.1775,0.1771,0.1768,0.1765,0.1763,0,0.0691,0.0696,0.0735,0.0761,0.0796,0.0865,0.0921,0.1015,0.1081,0.1238,0.1289,0.1424,0.1507,0.1639,0.1644,0.1704,0.1835,0.153,0.1455,0.173,0.1712,0.1707,0.1701,0.1262,0.1256,0.1251,0.1247,0,0.0729,0.0717,0.0741,0.0774,0.0818,0.088,0.0958,0.0992,0.1115,0.1184,0.1301,0.1361,0.1434,0.1373,0.1399,0.1418,0.149,0.142,0.1799,0.1318,0.1245,0.1227,0.1239,0.1201,0.1205,0.1209,0.1211,0.1213,0.0756,0.0778,0.0783,0.0843,0.088,0.0934,0.0958,0.1014,0.1086,0.1162,0.1261,0.1269,0.1121,0.1059,0.1075,0.1115,0.1204,0.1135,0.1152,0.1174,0.1078,0.1001,0.0893,0.0895,0.0898,0.09,0.0902,0,0.0852,0.0873,0.088,0.0932,0.097,0.0978,0.1031,0.1023,0.1074,0.1067,0.1129,0.0905,0.0794,0.0795,0.0737,0.069,0.0726,0.0708,0.0725,0.0765,0.0802,0.0691,0.0402,0.0402,0.0402,0.0402,0,0,0.0901,0.094,0.0948,0.1035,0.1058,0.1063,0.1075,0.1027,0.0996,0.0915,0.0843,0.0769,0.0683,0.0495,0.0433,0.0454,0.0646,0.0449,0.0823,0.0879,0.0918,0.0984,0.0847,0,0,0,0,0]},{"header":{"parameterUnit":"m.s-1","parameterCategory":2,"la1":30.2991,"la2":30.254,"lo1":-89.0895,"lo2":-89.0444,"dy":0.0017,"dx":0.0017,"nx":28,"ny":28,"refTime":"2024-06-29T03:00:00:Z","depth":"2","parameterNumber":3,"parameterNumberName":"V-component_of_CURRENTS"},"data":[0,0,0,0,0,0,0,0,0,0,0,0,0,0,0,0,0,0,0,0,0,0,0,0,0,0,0,0,0,0,0,0,0,0,0,0,0,0,0,0,0,0,0,0,0,0,0,0,0,0,0,0,0,0,0,0,0,0,0.0755,0.0756,0,0.0739,0.0738,0.0738,0.07,0.07,0.0699,0.0699,0.053,0.0526,0.0522,0,0,0,0,0,0,0,0,0,0,0,0,0,0.0707,0.0708,0.0755,0.0756,0.0756,0.0739,0.0738,0.0738,0.07,0.07,0.0699,0.0699,0.0531,0.0526,0.0521,0,0,0,0,0,0,0,0,0,0,0,0,0,0.071,0.0709,0.0755,0.0737,0.0736,0.0739,0.0738,0.0738,0.07,0.07,0.0699,0.0698,0.0533,0.0527,0.0521,0.0497,0,0,0.0502,0.0499,0,0,0,0,0,0,0,0,0.071,0.0711,0.074,0.0739,0.0737,0.0724,0.066,0.0651,0.07,0.071,0.0699,0.0698,0.0583,0.0573,0.0569,0.0489,0.0482,0.0501,0.0498,0.0495,0.0493,0,0,0,0,0,0,0,0.071,0.0712,0.0745,0.074,0.0739,0.0714,0.0714,0.0658,0.0645,0.0709,0.0707,0.0711,0.0581,0.0575,0.0564,0.0479,0.0502,0.0496,0.0492,0.049,0.0358,0.0358,0,0,0,0,0,0,0.0723,0.0712,0.0746,0.0745,0.0726,0.0716,0.0716,0.0726,0.0649,0.0639,0.0712,0.071,0.0586,0.0571,0.0558,0.0517,0.0495,0.0489,0.0486,0.0358,0.0358,0.0358,0,0,0,0,0,0,0.0722,0.0726,0.0747,0.073,0.0732,0.0719,0.073,0.0726,0.0713,0.0654,0.0639,0.0702,0.0584,0.0566,0.0512,0.051,0.0487,0.0481,0.0358,0.0358,0.0358,0.0439,0,0,0,0,0,0,0.072,0.0726,0.0728,0.0732,0.0733,0.0751,0.0731,0.0726,0.0718,0.0715,0.064,0.0625,0.0583,0.0522,0.0506,0.0501,0.0476,0.0358,0.0358,0.0358,0.0436,0.0442,0.0447,0,0,0,0,0,0.0719,0.0727,0.0728,0.0732,0.074,0.0752,0.075,0.0735,0.0719,0.0718,0.067,0.0627,0.0512,0.0517,0.0499,0.0492,0.0357,0.0358,0.0358,0.0434,0.0441,0.0447,0,0,0,0,0,0,0.0696,0.0725,0.0725,0.0738,0.0747,0.0746,0.0743,0.0734,0.0699,0.0686,0.0626,0.0607,0.0562,0.0515,0.0522,0.0455,0.0428,0.0425,0.0492,0.0498,0.0503,0.0526,0.0471,0,0,0,0,0,0.0698,0.0716,0.0733,0.0742,0.0749,0.0745,0.0744,0.0738,0.0716,0.07,0.065,0.0594,0.0552,0.0516,0.0471,0.0426,0.0394,0.041,0.0416,0.0421,0.0428,0.0387,0.039,0.036,0.036,0.036,0,0,0.0687,0.0708,0.0714,0.0739,0.0742,0.0755,0.0741,0.0745,0.0746,0.0683,0.0651,0.061,0.0546,0.051,0.0483,0.0465,0.0414,0.0421,0.0426,0.043,0.0388,0.0391,0.0394,0.036,0.036,0.036,0,0,0.0689,0.07,0.0719,0.0734,0.0752,0.0755,0.0758,0.0757,0.0745,0.0719,0.068,0.0648,0.0563,0.0538,0.0509,0.0513,0.0449,0.0484,0.052,0.0481,0.0483,0.0485,0.0456,0.0455,0.048,0.048,0.048,0,0.067,0.0705,0.0722,0.0748,0.0758,0.0757,0.0774,0.0767,0.0745,0.0738,0.0713,0.0634,0.0585,0.0555,0.0561,0.0527,0.049,0.0503,0.0489,0.049,0.049,0.0461,0.0458,0.0484,0.0483,0.0483,0.0483,0,0.0695,0.0716,0.0729,0.0765,0.0777,0.0791,0.0799,0.0795,0.0777,0.077,0.0739,0.0687,0.064,0.0623,0.0589,0.0569,0.0538,0.0509,0.0478,0.0499,0.0466,0.0461,0.0489,0.0488,0.0487,0.0486,0,0,0.0661,0.0733,0.0732,0.0756,0.0788,0.0801,0.0811,0.0823,0.0826,0.0798,0.0793,0.0743,0.0719,0.0686,0.0643,0.0615,0.0595,0.0562,0.0558,0.0544,0.0505,0.0524,0.052,0.0552,0.0552,0.0551,0.0485,0,0.0668,0.0721,0.0755,0.0787,0.0812,0.0829,0.084,0.0849,0.0841,0.0834,0.08,0.0768,0.0739,0.0709,0.0684,0.0613,0.0585,0.0615,0.0478,0.0475,0.0496,0.0517,0.0491,0.0433,0.048,0.0479,0.0479,0,0.0672,0.0714,0.0748,0.0811,0.0823,0.0832,0.0857,0.0871,0.0874,0.0865,0.0847,0.0814,0.0778,0.074,0.0651,0.0664,0.0593,0.0544,0.0539,0.0526,0.0485,0.0416,0.0422,0.0471,0.0472,0.0472,0.0473,0,0.0634,0.0705,0.0731,0.0749,0.0812,0.0819,0.0845,0.0865,0.0874,0.0872,0.0866,0.0833,0.0786,0.0718,0.0626,0.0622,0.0523,0.05,0.0457,0.0457,0.0396,0.0392,0.0435,0.0435,0.0435,0.0435,0.0436,0,0.0624,0.0643,0.0709,0.0718,0.0744,0.0798,0.0812,0.0837,0.086,0.087,0.0866,0.0853,0.077,0.0709,0.0635,0.0542,0.0524,0.0474,0.0444,0.0425,0.0424,0.0422,0.0421,0.0433,0.0433,0.0434,0.0434,0,0.0563,0.061,0.0636,0.07,0.0717,0.0724,0.0782,0.0801,0.0831,0.084,0.0833,0.0834,0.0769,0.0698,0.058,0.0541,0.0458,0.0422,0.0418,0.0391,0.0417,0.0421,0.038,0.038,0.038,0.038,0.0381,0,0.054,0.0546,0.0594,0.06,0.0618,0.065,0.0677,0.075,0.0781,0.0829,0.0831,0.079,0.0786,0.0662,0.0561,0.0457,0.0436,0.037,0.0375,0.0438,0.0413,0.0417,0.042,0.0317,0.0316,0.0316,0.0315,0,0.0491,0.0488,0.0504,0.0515,0.0533,0.0584,0.0636,0.0668,0.0758,0.0791,0.0836,0.0845,0.0753,0.0648,0.0522,0.0459,0.0398,0.0362,0.04,0.0354,0.0378,0.0354,0.0359,0.0312,0.0313,0.0313,0.0313,0.0313,0.0423,0.0412,0.042,0.0424,0.045,0.051,0.0561,0.0642,0.0714,0.078,0.0818,0.0821,0.0687,0.0524,0.0435,0.0363,0.0385,0.0331,0.0332,0.0333,0.0357,0.0382,0.0321,0.0321,0.0322,0.0322,0.0322,0,0.0344,0.0334,0.0345,0.0367,0.0393,0.0438,0.0528,0.0594,0.0687,0.0741,0.0792,0.0658,0.0573,0.0459,0.0347,0.0294,0.0291,0.027,0.025,0.0254,0.0258,0.0277,0.022,0.022,0.022,0.0219,0,0,0.0304,0.0279,0.0298,0.031,0.0337,0.0406,0.0467,0.0552,0.0611,0.0671,0.067,0.0649,0.0545,0.0398,0.0313,0.0274,0.0289,0.0276,0.0363,0.0354,0.0358,0.0297,0.0333,0,0,0,0,0]}],[{"header":{"parameterUnit":"m.s-1","parameterCategory":2,"la1":30.2991,"la2":30.254,"lo1":-89.0895,"lo2":-89.0444,"dy":0.0017,"dx":0.0017,"nx":28,"ny":28,"refTime":"2024-06-29T03:00:00:Z","depth":"4","parameterNumber":2,"parameterNumberName":"U-component_of_CURRENTS"},"data":[0,0,0,0,0,0,0,0,0,0,0,0,0,0,0,0,0,0,0,0,0,0,0,0,0,0,0,0,0,0,0,0,0,0,0,0,0,0,0,0,0,0,0,0,0,0,0,0,0,0,0,0,0,0,0,0,0,0,-0.0628,-0.0629,0,-0.0771,-0.0772,-0.0773,-0.0759,-0.0757,-0.0755,-0.0753,-0.0896,-0.0901,-0.0907,0,0,0,0,0,0,0,0,0,0,0,0,0,-0.0561,-0.056,-0.0628,-0.063,-0.0632,-0.077,-0.0772,-0.0774,-0.0759,-0.0756,-0.0754,-0.0752,-0.0894,-0.09,-0.0907,0,0,0,0,0,0,0,0,0,0,0,0,0,-0.0632,-0.056,-0.0627,-0.0643,-0.0646,-0.077,-0.0772,-0.0774,-0.0759,-0.0756,-0.0753,-0.0751,-0.0891,-0.09,-0.0908,-0.102,0,0,-0.0934,-0.0938,0,0,0,0,0,0,0,0,-0.0628,-0.0634,-0.0639,-0.0642,-0.0646,-0.0746,-0.0801,-0.0857,-0.076,-0.0713,-0.0753,-0.0749,-0.085,-0.0862,-0.0891,-0.1027,-0.1033,-0.0935,-0.094,-0.0944,-0.0946,0,0,0,0,0,0,0,-0.0622,-0.0629,-0.0681,-0.0641,-0.0646,-0.0719,-0.0723,-0.0813,-0.0794,-0.0717,-0.0717,-0.0739,-0.0851,-0.0883,-0.0894,-0.1035,-0.0934,-0.0942,-0.0947,-0.0951,-0.122,-0.1222,0,0,0,0,0,0,-0.0602,-0.0623,-0.0677,-0.0686,-0.0633,-0.0721,-0.0726,-0.0715,-0.0793,-0.0803,-0.0741,-0.0738,-0.087,-0.0884,-0.0899,-0.0986,-0.0943,-0.0951,-0.0956,-0.1218,-0.1221,-0.1223,0,0,0,0,0,0,-0.06,-0.0605,-0.0671,-0.0662,-0.0676,-0.0724,-0.0713,-0.0719,-0.0712,-0.0812,-0.082,-0.0722,-0.0868,-0.0887,-0.0978,-0.0993,-0.0955,-0.0963,-0.1216,-0.1219,-0.1222,-0.1192,0,0,0,0,0,0,-0.0597,-0.0602,-0.0579,-0.066,-0.0676,-0.0739,-0.0716,-0.0724,-0.0734,-0.0729,-0.0801,-0.0813,-0.0867,-0.0965,-0.0986,-0.1004,-0.097,-0.1213,-0.1217,-0.1221,-0.119,-0.1194,-0.1197,0,0,0,0,0,-0.0593,-0.0584,-0.0576,-0.0583,-0.0643,-0.074,-0.0756,-0.078,-0.0735,-0.0755,-0.0803,-0.0808,-0.1003,-0.0975,-0.0999,-0.1019,-0.1211,-0.1216,-0.1221,-0.1189,-0.1193,-0.1197,0,0,0,0,0,0,-0.055,-0.0584,-0.0577,-0.0576,-0.0647,-0.0738,-0.0742,-0.0762,-0.0814,-0.0778,-0.0853,-0.0874,-0.0955,-0.1002,-0.0968,-0.111,-0.1102,-0.1112,-0.107,-0.1074,-0.1077,-0.1025,-0.0977,0,0,0,0,0,-0.0528,-0.0511,-0.0589,-0.0585,-0.0601,-0.066,-0.0691,-0.0712,-0.0776,-0.0789,-0.0843,-0.0907,-0.1006,-0.1045,-0.1129,-0.1218,-0.1221,-0.1243,-0.1246,-0.1248,-0.1224,-0.1267,-0.1271,-0.1239,-0.1238,-0.1238,0,0,-0.0518,-0.0526,-0.0522,-0.0573,-0.0601,-0.0674,-0.0667,-0.0699,-0.0768,-0.0803,-0.0871,-0.0921,-0.1033,-0.1131,-0.1169,-0.1163,-0.126,-0.1254,-0.1255,-0.123,-0.1272,-0.1275,-0.1277,-0.1242,-0.1241,-0.1241,0,0,-0.0495,-0.0477,-0.0461,-0.0524,-0.0569,-0.064,-0.0641,-0.0713,-0.0737,-0.0826,-0.0873,-0.0936,-0.1057,-0.1157,-0.1223,-0.1301,-0.1276,-0.1303,-0.1277,-0.132,-0.1322,-0.1323,-0.1318,-0.1319,-0.1302,-0.1302,-0.1302,0,-0.0474,-0.0468,-0.0485,-0.0511,-0.057,-0.0621,-0.0673,-0.0744,-0.0843,-0.0883,-0.0832,-0.1013,-0.1083,-0.1254,-0.125,-0.1308,-0.1285,-0.1251,-0.1319,-0.1321,-0.1323,-0.1317,-0.1318,-0.1302,-0.1302,-0.1302,-0.1302,0,-0.047,-0.0474,-0.0473,-0.0524,-0.0602,-0.0648,-0.0765,-0.0816,-0.0826,-0.0899,-0.0998,-0.1081,-0.1164,-0.1214,-0.1241,-0.1316,-0.1279,-0.1314,-0.1294,-0.1323,-0.1316,-0.1318,-0.13,-0.1301,-0.1301,-0.1301,0,0,-0.0399,-0.0455,-0.0448,-0.0495,-0.0607,-0.0687,-0.0792,-0.0931,-0.0994,-0.104,-0.1112,-0.1237,-0.1191,-0.126,-0.1307,-0.1339,-0.132,-0.1285,-0.1288,-0.125,-0.1341,-0.1175,-0.1161,-0.1332,-0.1333,-0.1334,-0.1324,0,-0.0385,-0.0418,-0.0473,-0.0583,-0.0636,-0.0747,-0.0867,-0.0997,-0.1064,-0.1149,-0.1215,-0.1272,-0.1247,-0.1222,-0.1259,-0.132,-0.1323,-0.1315,-0.1343,-0.1344,-0.1169,-0.1159,-0.1336,-0.1326,-0.1326,-0.1327,-0.1327,0,-0.0365,-0.04,-0.0447,-0.062,-0.0652,-0.0723,-0.0904,-0.1012,-0.1163,-0.1186,-0.1225,-0.1254,-0.1307,-0.1247,-0.1321,-0.129,-0.1269,-0.131,-0.1312,-0.116,-0.118,-0.1301,-0.1331,-0.133,-0.133,-0.133,-0.133,0,-0.0308,-0.0411,-0.0439,-0.0493,-0.0676,-0.0708,-0.0801,-0.0971,-0.1087,-0.1134,-0.1177,-0.1246,-0.1246,-0.1256,-0.1271,-0.1257,-0.1343,-0.1368,-0.1221,-0.121,-0.1376,-0.1375,-0.1385,-0.1385,-0.1385,-0.1385,-0.1385,0,-0.0292,-0.0342,-0.0385,-0.0413,-0.0516,-0.0624,-0.074,-0.0834,-0.0971,-0.1078,-0.1115,-0.1153,-0.1226,-0.1291,-0.1278,-0.1231,-0.1338,-0.1182,-0.119,-0.1365,-0.1363,-0.1376,-0.1375,-0.1385,-0.1385,-0.1385,-0.1385,0,-0.0246,-0.0258,-0.033,-0.0434,-0.0473,-0.0517,-0.0705,-0.0816,-0.0884,-0.1002,-0.0985,-0.1095,-0.1054,-0.1179,-0.122,-0.1226,-0.1225,-0.1187,-0.1335,-0.1359,-0.1053,-0.1052,-0.0989,-0.0982,-0.0977,-0.0973,-0.0969,0,-0.0239,-0.0233,-0.0308,-0.0355,-0.0378,-0.0469,-0.0574,-0.0716,-0.0788,-0.0935,-0.0953,-0.0975,-0.1006,-0.0971,-0.1047,-0.1045,-0.1041,-0.1079,-0.1059,-0.0995,-0.1011,-0.1017,-0.1023,-0.0961,-0.096,-0.0958,-0.0957,0,-0.0266,-0.023,-0.0282,-0.0331,-0.0394,-0.0524,-0.0591,-0.0633,-0.0762,-0.0897,-0.0843,-0.0841,-0.0825,-0.0806,-0.0835,-0.084,-0.1082,-0.1024,-0.1034,-0.1015,-0.0962,-0.0983,-0.0995,-0.0939,-0.0942,-0.0943,-0.0944,0,-0.0288,-0.0301,-0.031,-0.0354,-0.0444,-0.0471,-0.0545,-0.0573,-0.0654,-0.0748,-0.0698,-0.0714,-0.0758,-0.0694,-0.071,-0.0702,-0.067,-0.0715,-0.0741,-0.0761,-0.0694,-0.0592,-0.0432,0,0,0,0,0,-0.0338,-0.0326,-0.0374,-0.0387,-0.045,-0.048,-0.0555,-0.0609,-0.0681,-0.0612,-0.0646,-0.0577,-0.054,-0.0536,-0.0469,-0.0602,-0.0696,-0.0531,-0.0766,-0.084,-0.0861,-0.0804,0,0,0,0,0,0,-0.038,-0.0408,-0.037,-0.0377,-0.0376,-0.0448,-0.0468,-0.052,-0.0438,-0.0501,-0.0439,-0.0541,-0.0468,-0.0535,-0.0447,-0.0459,-0.0598,-0.0552,-0.055,-0.0828,-0.0847,-0.0864,-0.0812,0,0,0,0,0]},{"header":{"parameterUnit":"m.s-1","parameterCategory":2,"la1":30.2991,"la2":30.254,"lo1":-89.0895,"lo2":-89.0444,"dy":0.0017,"dx":0.0017,"nx":28,"ny":28,"refTime":"2024-06-29T03:00:00:Z","depth":"4","parameterNumber":3,"parameterNumberName":"V-component_of_CURRENTS"},"data":[0,0,0,0,0,0,0,0,0,0,0,0,0,0,0,0,0,0,0,0,0,0,0,0,0,0,0,0,0,0,0,0,0,0,0,0,0,0,0,0,0,0,0,0,0,0,0,0,0,0,0,0,0,0,0,0,0,0,0.0373,0.0373,0,0.0378,0.0378,0.0378,0.0401,0.0401,0.0402,0.0403,0.0502,0.0504,0.0506,0,0,0,0,0,0,0,0,0,0,0,0,0,0.0408,0.0407,0.0373,0.0373,0.0373,0.0378,0.0378,0.0378,0.0401,0.0401,0.0402,0.0403,0.0501,0.0504,0.0506,0,0,0,0,0,0,0,0,0,0,0,0,0,0.04,0.0406,0.0373,0.0386,0.0387,0.0378,0.0378,0.0378,0.04,0.0401,0.0402,0.0403,0.0501,0.0504,0.0507,0.0506,0,0,0.0516,0.0517,0,0,0,0,0,0,0,0,0.04,0.0398,0.0384,0.0385,0.0387,0.0391,0.0427,0.0426,0.04,0.0394,0.0403,0.0404,0.0474,0.0479,0.0475,0.0511,0.0515,0.0516,0.0518,0.0519,0.052,0,0,0,0,0,0,0,0.04,0.0398,0.0374,0.0384,0.0386,0.04,0.04,0.0426,0.0429,0.0395,0.0397,0.0399,0.0475,0.0472,0.0478,0.0517,0.0516,0.0519,0.0521,0.0522,0.0569,0.0569,0,0,0,0,0,0,0.0399,0.0398,0.0374,0.0374,0.0397,0.0399,0.0398,0.0388,0.0427,0.0434,0.0398,0.04,0.0466,0.0474,0.0481,0.0471,0.0519,0.0522,0.0524,0.057,0.0569,0.0569,0,0,0,0,0,0,0.04,0.0397,0.0374,0.0388,0.0387,0.0397,0.0385,0.0387,0.0388,0.0429,0.0437,0.0398,0.0467,0.0477,0.05,0.0476,0.0524,0.0526,0.0571,0.057,0.0569,0.0459,0,0,0,0,0,0,0.0401,0.0396,0.0403,0.0388,0.0386,0.0361,0.0384,0.0387,0.0388,0.0391,0.0431,0.0441,0.0468,0.0495,0.0503,0.0481,0.0529,0.0571,0.057,0.0569,0.0464,0.0455,0.0447,0,0,0,0,0,0.0402,0.0392,0.0403,0.0401,0.0389,0.036,0.036,0.0371,0.0388,0.0378,0.0407,0.044,0.0494,0.0496,0.0506,0.0485,0.0572,0.0571,0.0569,0.0467,0.0456,0.0447,0,0,0,0,0,0,0.0409,0.0393,0.0404,0.0392,0.0379,0.0364,0.0363,0.0368,0.0381,0.0391,0.0432,0.0442,0.0453,0.0488,0.049,0.0497,0.0539,0.0539,0.0458,0.0448,0.044,0.0427,0.0531,0,0,0,0,0,0.0414,0.0408,0.0389,0.0384,0.0372,0.037,0.0367,0.0366,0.037,0.0376,0.0399,0.0432,0.0453,0.0466,0.0492,0.0496,0.0541,0.0491,0.0483,0.0475,0.0472,0.051,0.0504,0.0564,0.0564,0.0564,0,0,0.0421,0.0411,0.0411,0.0387,0.038,0.0341,0.0369,0.0351,0.0329,0.0387,0.0375,0.0406,0.0449,0.0447,0.0456,0.0474,0.0483,0.0474,0.0466,0.0468,0.0508,0.0502,0.0497,0.0563,0.0564,0.0564,0,0,0.0404,0.0412,0.039,0.0365,0.0345,0.0335,0.0327,0.0305,0.0308,0.0299,0.0334,0.0356,0.038,0.0402,0.042,0.0388,0.0439,0.0389,0.0332,0.0368,0.0363,0.0359,0.0411,0.0413,0.0382,0.0382,0.0382,0,0.0426,0.0376,0.038,0.0334,0.031,0.0324,0.0274,0.0273,0.0264,0.0266,0.0286,0.0321,0.0361,0.0364,0.0343,0.0369,0.0396,0.0361,0.0355,0.0353,0.0351,0.0405,0.0408,0.0377,0.0377,0.0378,0.0378,0,0.0362,0.0332,0.031,0.026,0.0234,0.0196,0.0179,0.0169,0.0181,0.0184,0.0195,0.0242,0.0264,0.0273,0.0294,0.0289,0.0315,0.034,0.0375,0.0338,0.0398,0.0403,0.0369,0.0371,0.0372,0.0374,0,0,0.04,0.0291,0.0292,0.0238,0.0187,0.0151,0.012,0.0093,0.0079,0.0096,0.0081,0.0119,0.0151,0.0173,0.0208,0.0231,0.0242,0.0259,0.0264,0.0301,0.0319,0.021,0.0206,0.0248,0.0248,0.0249,0.0367,0,0.0359,0.0257,0.0215,0.0122,0.0057,0.0044,0.0009,-0.0006,0.0004,-0.0003,0.0057,0.007,0.0111,0.0122,0.0145,0.0217,0.0249,0.0208,0.0359,0.0364,0.0262,0.0206,0.0249,0.0372,0.0373,0.0374,0.0375,0,0.0315,0.0241,0.0156,0.0029,0.0003,-0.0021,-0.007,-0.0106,-0.0097,-0.0091,-0.0065,-0.0027,0.0014,0.0057,0.0166,0.0128,0.021,0.0274,0.0281,0.0219,0.0263,0.042,0.0386,0.0385,0.0384,0.0383,0.0383,0,0.0332,0.0198,0.0135,0.0095,-0.0025,-0.0035,-0.0077,-0.0094,-0.0132,-0.0117,-0.013,-0.0081,-0.0036,0.0047,0.0165,0.0162,0.0288,0.0318,0.0309,0.0305,0.0423,0.0426,0.0401,0.0401,0.0401,0.04,0.04,0,0.0291,0.0235,0.0156,0.0118,0.004,-0.0028,-0.0081,-0.0109,-0.0144,-0.0191,-0.015,-0.0171,-0.0042,0.0033,0.014,0.0223,0.0283,0.0282,0.0311,0.0376,0.0372,0.0427,0.0429,0.0405,0.0404,0.0403,0.0402,0,0.0313,0.0265,0.018,0.0082,0.0055,0.002,-0.0094,-0.016,-0.0159,-0.0213,-0.0212,-0.021,-0.0155,-0.0025,0.0126,0.0193,0.0295,0.0326,0.0388,0.0423,0.0302,0.0297,0.031,0.0306,0.0303,0.0301,0.0299,0,0.0295,0.0269,0.019,0.0141,0.0112,0.0035,-0.0048,-0.013,-0.02,-0.025,-0.0285,-0.0256,-0.0243,-0.0087,0.0018,0.0196,0.0224,0.0313,0.0285,0.0257,0.0285,0.0285,0.0283,0.0295,0.0294,0.0293,0.0293,0,0.0248,0.0281,0.0212,0.0149,0.008,-0.0066,-0.0159,-0.0193,-0.0292,-0.0312,-0.0337,-0.0294,-0.0254,-0.0154,-0.0018,0.0111,0.026,0.0285,0.0292,0.0266,0.024,0.027,0.0272,0.0283,0.0284,0.0285,0.0286,0,0.0239,0.021,0.0178,0.0118,0.0024,-0.0094,-0.0169,-0.0267,-0.0335,-0.0354,-0.0374,-0.0323,-0.0295,-0.0202,-0.0086,0.0014,0.0033,0.0118,0.0134,0.0146,0.0033,-0.0028,-0.0062,0,0,0,0,0,0.0211,0.0191,0.0113,0.0039,-0.0041,-0.0065,-0.0235,-0.0311,-0.0358,-0.0379,-0.0364,-0.0336,-0.0243,-0.0226,-0.0147,-0.0158,0.0046,-0.0063,0.0153,0.0229,0.0241,0.012,0,0,0,0,0,0,0.017,0.0147,0.0112,0.0016,0.0003,-0.0127,-0.019,-0.0258,-0.0275,-0.029,-0.0255,-0.0257,-0.0183,-0.023,-0.0103,-0.0091,0.0061,-0.0032,-0.003,0.0223,0.0233,0.0242,0.0123,0,0,0,0,0]}]]